Weather History for Edinburgh Airport, United Kingdom

Change the Weather History Date:

Tuesday, October 9, 2012

  Actual Average Record
Temperature  
Mean Temperature 40 °F -  
Max Temperature 51 °F 54 °F 62 °F (2003)
Min Temperature 30 °F 41 °F 30 °F (2012)
Degree Days  
Heating Degree Days 24    
Moisture  
Dew Point 34 °F    
Average Humidity 83    
Maximum Humidity 100    
Minimum Humidity 54    
Precipitation  
Precipitation 0.00 in 0.08 in - ()
Sea Level Pressure  
Sea Level Pressure 30.06 in    
Wind  
Wind Speed 1 mph ()    
Max Wind Speed 7 mph    
Max Gust Speed -    
Visibility 5.7 miles    
Events Fog    
Averages and records for this station are not official NWS values.
T = Trace of Precipitation, MM = Missing Value Source: Averaged Metar Reports

Daily Weather History Graph

Daily Weather History Graph

Search for Another Location

Airport:

Trip Planner

Search our weather history database for the weather conditions in past years. The results will help you decide how hot, cold, wet, or windy it might be!

Date:

Astronomy

Oct. 09, 2012 Rise Set
Actual Time 7:33 AM BST 6:27 PM BST
Civil Twilight 6:55 AM BST 7:04 PM BST
Nautical Twilight 6:12 AM BST 7:47 PM BST
Astronomical Twilight 5:29 AM BST 8:30 PM BST
Moon No Moon Rise 3:44 PM BST (10/9)
Length of Visible Light 12h 08m
Length of Day
10h 54m
Last Quarter, 39% of the Moon is Illuminated
Oct 9
Last Quarter
Oct 15
New
Oct 22
First Quarter
Oct 29
Full
Nov 7
Last Quarter

Hourly Weather History & Observations

Time (BST) Temp. Windchill Dew Point Humidity Pressure Visibility Wind Dir Wind Speed Gust Speed Precip Events Conditions
12:20 AM 41.0 °F - 39.2 °F 93% 30.06 in 6.2 mi West 2.3 mph - N/A   Partly Cloudy
1:20 AM 37.4 °F - 35.6 °F 93% 30.06 in - Calm Calm - N/A   Clear
1:50 AM 35.6 °F - 33.8 °F 93% 30.06 in - Variable 2.3 mph - N/A   Clear
2:20 AM 33.8 °F 30.8 °F 32.0 °F 93% 30.06 in - SW 3.5 mph - N/A   Clear
2:50 AM 33.8 °F - 32.0 °F 93% 30.06 in 6.2 mi Calm Calm - N/A   Scattered Clouds
3:20 AM 32.0 °F - 32.0 °F 100% 30.06 in 6.2 mi Variable 2.3 mph - N/A   Scattered Clouds
3:50 AM 32.0 °F - 32.0 °F 100% 30.06 in 1.9 mi Calm Calm - N/A   Mist
4:20 AM 32.0 °F - 32.0 °F 100% 30.06 in 6.2 mi Calm Calm - N/A   Partly Cloudy
4:50 AM 32.0 °F - 30.2 °F 93% 30.06 in 6.2 mi Calm Calm - N/A   Partly Cloudy
5:20 AM 30.2 °F - 30.2 °F 100% 30.06 in 6.2 mi Calm Calm - N/A   Partly Cloudy
5:50 AM 30.2 °F - 30.2 °F 100% 30.06 in - Calm Calm - N/A   Clear
6:20 AM 30.2 °F - 30.2 °F 100% 30.06 in - Calm Calm - N/A   Clear
6:50 AM 32.0 °F - 30.2 °F 93% 30.06 in - Calm Calm - N/A   Clear
7:20 AM 30.2 °F - 28.4 °F 93% 30.06 in 6.2 mi Calm Calm - N/A Fog Shallow Fog
7:50 AM 30.2 °F - 30.2 °F 100% 30.06 in 6.2 mi Variable 2.3 mph - N/A Fog Shallow Fog
8:20 AM 32.0 °F - 30.2 °F 93% 30.09 in - Calm Calm - N/A   Clear
8:50 AM 32.0 °F - 32.0 °F 100% 30.09 in - Variable 2.3 mph - N/A   Clear
9:20 AM 35.6 °F - 35.6 °F 100% 30.09 in - West 2.3 mph - N/A   Clear
9:50 AM 39.2 °F - 37.4 °F 93% 30.09 in - Variable 2.3 mph - N/A   Clear
10:20 AM 41.0 °F - 37.4 °F 87% 30.09 in - Calm Calm - N/A   Clear
10:50 AM 44.6 °F - 37.4 °F 76% 30.09 in - Variable 2.3 mph - N/A   Clear
11:20 AM 46.4 °F - 35.6 °F 66% 30.09 in - Calm Calm - N/A   Clear
11:50 AM 48.2 °F - 35.6 °F 62% 30.09 in - Calm Calm - N/A   Clear
12:50 PM 48.2 °F - 35.6 °F 62% 30.09 in - Variable 3.5 mph - N/A   Clear
1:20 PM 50.0 °F - 33.8 °F 54% 30.09 in - Variable 2.3 mph - N/A   Clear
1:50 PM 50.0 °F - 33.8 °F 54% 30.06 in - Calm Calm - N/A   Clear
2:20 PM 51.8 °F - 35.6 °F 54% 30.06 in - Variable 3.5 mph - N/A   Clear
2:50 PM 50.0 °F - 35.6 °F 58% 30.06 in - Variable 3.5 mph - N/A   Clear
3:20 PM 50.0 °F - 35.6 °F 58% 30.06 in - NE 6.9 mph - N/A   Clear
3:50 PM 50.0 °F - 35.6 °F 58% 30.06 in - ENE 5.8 mph - N/A   Clear
4:20 PM 50.0 °F - 37.4 °F 62% 30.04 in - Variable 3.5 mph - N/A   Clear
4:50 PM 50.0 °F - 35.6 °F 58% 30.04 in - Variable 3.5 mph - N/A   Clear
5:20 PM 50.0 °F - 35.6 °F 58% 30.04 in - ENE 3.5 mph - N/A   Clear
5:50 PM 48.2 °F - 35.6 °F 62% 30.04 in - East 4.6 mph - N/A   Clear
6:20 PM 46.4 °F 45.2 °F 35.6 °F 66% 30.04 in - Variable 3.5 mph - N/A   Clear
6:50 PM 42.8 °F - 35.6 °F 76% 30.04 in - Calm Calm - N/A   Clear
7:20 PM 42.8 °F 41.1 °F 35.6 °F 76% 30.04 in - Variable 3.5 mph - N/A   Clear
7:50 PM 39.2 °F - 35.6 °F 87% 30.04 in - Calm Calm - N/A   Clear
8:20 PM 37.4 °F - 35.6 °F 93% 30.04 in - Calm Calm - N/A   Clear
8:50 PM 37.4 °F - 35.6 °F 93% 30.04 in - Calm Calm - N/A   Clear
9:20 PM 35.6 °F - 33.8 °F 93% 30.06 in - West 2.3 mph - N/A   Clear
9:50 PM 35.6 °F 32.8 °F 33.8 °F 93% 30.06 in - SW 3.5 mph - N/A   Clear
10:20 PM 35.6 °F - 33.8 °F 93% 30.04 in - WSW 2.3 mph - N/A   Clear
10:50 PM 33.8 °F - 32.0 °F 93% 30.04 in - Calm Calm - N/A   Clear
11:20 PM 33.8 °F - 33.8 °F 100% 30.04 in - Variable 2.3 mph - N/A   Clear
11:50 PM 33.8 °F 30.8 °F 33.8 °F 100% 30.04 in - WSW 3.5 mph - N/A   Clear